Home > Weather > Rzeszów > Past weeks

Flag for Poland Past Weather in Rzeszów, Poland — Yesterday and Last 2 Weeks

Now
70 °F

Passing clouds.


Feels Like: 70 °F
Forecast: 57 / 69 °F
Wind: 7 mph from South

Location: Rzeszow-Jasionka

Current Time: Jun 1, 2016 at 9:35:20 AM

Latest Report: Jun 1, 2016 at 9:00 AM


Visibility: N/A

Pressure: 29.92 "Hg

Humidity: 69%

Dew Point: 59 °F

Location of RzeszówLocation

Past Weather in Rzeszów — Graph

°F

Rzeszów Temperature Yesterday

Maximum temperature yesterday: 77 °F (at 2:30 PM)
Minimum temperature yesterday: 57 °F (at 3:30 AM)
Average temperature yesterday: 65 °F

High & Low Weather Summary for the Past Weeks

 TemperatureHumidityPressure
High82 °F (May 29, 3:30 PM)100% (May 19, 1:00 AM)30.09 "Hg (May 19, 1:00 AM)
Low34 °F (May 19, 5:00 AM)30% (May 24, 3:30 PM)29.65 "Hg (May 24, 3:00 PM)
Average61 °F71%29.92 "Hg
* Reported May 17 8:00 AM — Jun 1 8:30 AM, Rzeszów, Weather by CustomWeather, © 2016

Note: Actual official high and low records may vary slightly from our data, if they occured in-between our weather recording intervals... More about our weather records

Advertising

Rzeszów Weather History for the Previous 24 Hours

Scroll right to see more
 ConditionsComfort  
Time TempWeatherWind HumidityBarometerVisibility
8:30 AM
Wed, Jun 1
68 °FSunny.6 mph64%29.92 "Hg10 mi
8:00 AM66 °FSunny.6 mph73%29.92 "Hg10 mi
7:30 AM66 °FSunny.5 mph78%29.89 "Hg10 mi
7:00 AM63 °FSunny.2 mph88%29.89 "Hg10 mi
6:30 AM61 °FSunny.1 mph88%29.89 "Hg10 mi
6:00 AM57 °FSunny.2 mph100%29.89 "Hg10 mi
5:30 AM57 °FSunny.1 mph94%29.89 "Hg10 mi
5:00 AM57 °FClear.2 mph94%29.89 "Hg10 mi
4:30 AM57 °FClear.2 mph94%29.89 "Hg10 mi
4:00 AM57 °FClear.2 mph100%29.89 "Hg10 mi
3:30 AM57 °FClear.3 mph100%29.89 "Hg10 mi
3:00 AM57 °FClear.2 mph100%29.89 "Hg10 mi
2:30 AM59 °FClear.2 mph94%29.86 "Hg10 mi
2:00 AM61 °FClear.2 mph94%29.86 "Hg10 mi
1:30 AM59 °FClear.3 mph94%29.86 "Hg10 mi
1:00 AM61 °FClear.3 mph94%29.86 "Hg10 mi
12:30 AM61 °FPassing clouds.5 mph94%29.86 "HgN/A
12:00 AM63 °FClear.2 mph94%29.86 "Hg10 mi
11:30 PM
Tue, May 31
63 °FClear.6 mph94%29.86 "Hg10 mi
11:00 PM64 °FPassing clouds.5 mph94%29.83 "HgN/A
10:30 PM64 °FClear.2 mph94%29.83 "Hg10 mi
10:00 PM64 °FClear.6 mph94%29.83 "Hg10 mi
9:30 PM64 °FSunny.6 mph94%29.83 "Hg10 mi
9:00 PM64 °FSunny.7 mph94%29.83 "Hg10 mi
8:30 PM66 °FScattered clouds.6 mph88%29.83 "HgN/A
8:00 PM66 °FPassing clouds.7 mph94%29.80 "HgN/A
7:30 PM66 °FSunny.6 mph88%29.80 "Hg10 mi
7:00 PM66 °FSunny.7 mph94%29.80 "Hg10 mi
6:30 PM66 °FSunny.3 mph94%29.80 "Hg10 mi
6:00 PM66 °FPassing clouds.3 mph88%29.80 "HgN/A
5:30 PM64 °FPassing clouds.3 mph94%29.80 "HgN/A
5:00 PM63 °FSprinkles. Scattered clouds.7 mph88%29.80 "HgN/A
4:30 PM61 °FThunderstorms. Partly sunny.3 mph94%29.80 "HgN/A
4:00 PM64 °FThunderstorms. Broken clouds.8 mph94%29.83 "Hg3 mi
3:30 PM70 °FThunderstorms. Partly sunny.14 mph78%29.80 "HgN/A
3:00 PM73 °FThunderstorms. Scattered clouds.15 mph69%29.80 "HgN/A
2:30 PM77 °FPassing clouds.2 mph61%29.80 "HgN/A
2:00 PM75 °FPassing clouds.5 mph65%29.80 "HgN/A
1:30 PM75 °FPassing clouds.3 mph69%29.80 "HgN/A
1:00 PM73 °FPassing clouds.2 mph69%29.80 "HgN/A
12:30 PM70 °FPassing clouds.3 mph83%29.80 "HgN/A
12:00 PM70 °FScattered clouds.3 mph83%29.80 "HgN/A
11:30 AM68 °FThunderstorms. Partly sunny.2 mph88%29.83 "Hg5 mi
11:00 AM66 °FThunderstorms. Scattered clouds.3 mph88%29.83 "Hg4 mi
10:30 AM68 °FThunderstorms. Scattered clouds.2 mph83%29.83 "HgN/A
10:00 AM68 °FPassing clouds.5 mph78%29.83 "HgN/A
9:30 AM66 °FPassing clouds.6 mph83%29.83 "HgN/A
9:00 AM66 °FPassing clouds.7 mph83%29.80 "HgN/A
Weather by CustomWeather, © 2016

See weather overviewHow to use our weather pages